KLM2526 EHAM-EGLL

Flight info

Callsign KLM2526
Flight time 0h 34m
Altitude 24000
Route IDRID L980 LOGAN
Aircraft B738/M-SDE2E3FGHIRWXY/LB1

Departure

Time 2026-04-18 10:53
Airport Amsterdam Airport Schiphol (EHAM)

Arrival

Time 2026-04-18 11:27
Airport London Heathrow Airport (EGLL)
Time Latitude Longitude Altitude Speed Heading
2026-04-18 10:38 52.30714 4.77089 3 ft 0 kts
2026-04-18 10:45 52.30712 4.77089 3 ft 2 kts
2026-04-18 10:45 52.30696 4.77087 3 ft 2 kts
2026-04-18 10:45 52.30680 4.77083 3 ft 2 kts 14°
2026-04-18 10:45 52.30664 4.77074 4 ft 2 kts 33°
2026-04-18 10:46 52.30654 4.77055 6 ft 2 kts 81°
2026-04-18 10:46 52.30653 4.77040 5 ft 0 kts 92°
2026-04-18 10:48 52.30652 4.77072 6 ft 7 kts 92°
2026-04-18 10:48 52.30649 4.77204 5 ft 16 kts 92°
2026-04-18 10:49 52.30642 4.77415 10 ft 21 kts 90°
2026-04-18 10:49 52.30627 4.77495 12 ft 0 kts 142°
2026-04-18 10:50 52.30624 4.77498 12 ft 3 kts 150°
2026-04-18 10:50 52.30572 4.77543 13 ft 14 kts 152°
2026-04-18 10:50 52.30548 4.77562 14 ft 0 kts 153°
2026-04-18 10:51 52.30528 4.77579 14 ft 8 kts 153°
2026-04-18 10:51 52.30450 4.77639 18 ft 18 kts 164°
2026-04-18 10:51 52.30367 4.77511 15 ft 16 kts 240°
2026-04-18 10:51 52.30363 4.77500 17 ft 1 kts 238°
2026-04-18 10:52 52.30361 4.77495 16 ft 1 kts 238°
2026-04-18 10:52 52.30283 4.77286 11 ft 64 kts 239°
2026-04-18 10:52 52.29885 4.76249 15 ft 148 kts 239°
2026-04-18 10:52 52.29266 4.74633 487 ft 187 kts 239°
2026-04-18 10:53 52.28556 4.72760 1485 ft 202 kts 239°
2026-04-18 10:53 52.27798 4.70739 2398 ft 211 kts 240°
2026-04-18 10:53 52.26989 4.68693 3139 ft 217 kts 232°
2026-04-18 10:53 52.25819 4.67038 3641 ft 232 kts 219°
2026-04-18 10:54 52.24486 4.65515 4263 ft 238 kts 219°
2026-04-18 10:54 52.23322 4.63563 4901 ft 251 kts 237°
2026-04-18 10:54 52.22542 4.60938 5650 ft 260 kts 253°
2026-04-18 10:54 52.22161 4.58135 6736 ft 254 kts 258°
2026-04-18 10:55 52.21814 4.55253 7391 ft 262 kts 257°
2026-04-18 10:55 52.21345 4.52472 8528 ft 249 kts 248°
2026-04-18 10:55 52.20757 4.49810 9350 ft 252 kts 250°
2026-04-18 10:55 52.20207 4.47050 9978 ft 259 kts 251°
2026-04-18 10:56 52.19684 4.44204 10543 ft 267 kts 253°
2026-04-18 10:56 52.19161 4.41182 10821 ft 286 kts 253°
2026-04-18 10:56 52.18582 4.37975 11026 ft 306 kts 251°
2026-04-18 10:56 52.17912 4.34578 11357 ft 320 kts 251°
2026-04-18 10:57 52.17203 4.31102 11967 ft 325 kts 250°
2026-04-18 10:57 52.16476 4.27606 12696 ft 327 kts 250°
2026-04-18 10:57 52.15736 4.24082 13418 ft 330 kts 250°
2026-04-18 10:57 52.14296 4.17297 14718 ft 337 kts 250°
2026-04-18 10:58 52.11276 4.03177 17402 ft 349 kts 250°
2026-04-18 10:58 52.08013 3.88037 19935 ft 358 kts 250°
2026-04-18 10:58 52.04665 3.72655 22216 ft 367 kts 250°
2026-04-18 10:58 52.01211 3.56905 23887 ft 375 kts 250°
2026-04-18 10:59 51.96387 3.41688 24301 ft 390 kts 232°
2026-04-18 10:59 51.89696 3.27829 24225 ft 386 kts 235°
2026-04-18 10:59 51.84576 3.13058 24189 ft 372 kts 255°
2026-04-18 10:59 51.83878 3.01388 24243 ft 375 kts 263°
2026-04-18 11:00 51.83626 2.97160 24241 ft 381 kts 262°
2026-04-18 11:00 51.83348 2.92887 24233 ft 381 kts 262°
2026-04-18 11:00 51.83065 2.88645 24240 ft 378 kts 262°
2026-04-18 11:00 51.82784 2.84439 24230 ft 375 kts 262°
2026-04-18 11:01 51.82505 2.80256 24226 ft 374 kts 262°
2026-04-18 11:01 51.82228 2.76081 24225 ft 373 kts 262°
2026-04-18 11:01 51.81950 2.71916 24227 ft 373 kts 262°
2026-04-18 11:02 51.81385 2.63544 24229 ft 376 kts 262°
2026-04-18 11:02 51.81097 2.59347 24228 ft 377 kts 262°
2026-04-18 11:02 51.80805 2.55133 24227 ft 378 kts 262°
2026-04-18 11:02 51.80513 2.50924 24226 ft 379 kts 262°
2026-04-18 11:03 51.80218 2.46681 24229 ft 379 kts 262°
2026-04-18 11:03 51.79922 2.42451 24249 ft 379 kts 261°
2026-04-18 11:03 51.79625 2.38219 24238 ft 378 kts 261°
2026-04-18 11:03 51.79327 2.34003 24230 ft 377 kts 261°
2026-04-18 11:04 51.79030 2.29808 24221 ft 376 kts 261°
2026-04-18 11:04 51.78732 2.25628 24201 ft 374 kts 262°
2026-04-18 11:04 51.78435 2.21459 24219 ft 373 kts 262°
2026-04-18 11:04 51.78173 2.17290 24219 ft 373 kts 263°
2026-04-18 11:05 51.77933 2.13125 24225 ft 373 kts 263°
2026-04-18 11:05 51.77695 2.08940 24229 ft 374 kts 263°
2026-04-18 11:05 51.77455 2.04754 24228 ft 375 kts 263°
2026-04-18 11:05 51.77210 2.00563 24228 ft 376 kts 263°
2026-04-18 11:06 51.76960 1.96347 24227 ft 377 kts 263°
2026-04-18 11:06 51.76708 1.92136 24242 ft 377 kts 262°
2026-04-18 11:06 51.76454 1.87937 24236 ft 377 kts 262°
2026-04-18 11:06 51.76197 1.83719 24227 ft 376 kts 262°
2026-04-18 11:07 51.75939 1.79518 24226 ft 376 kts 262°
2026-04-18 11:07 51.75681 1.75322 24226 ft 375 kts 262°
2026-04-18 11:07 51.75426 1.71196 24227 ft 374 kts 262°
2026-04-18 11:07 51.75162 1.66962 24228 ft 374 kts 262°
2026-04-18 11:08 51.74905 1.62865 24226 ft 373 kts 262°
2026-04-18 11:08 51.74641 1.58698 24226 ft 373 kts 262°
2026-04-18 11:08 51.74373 1.54538 24171 ft 372 kts 262°
2026-04-18 11:08 51.74105 1.50395 23690 ft 368 kts 262°
2026-04-18 11:09 51.73836 1.46254 23094 ft 364 kts 262°
2026-04-18 11:09 51.73575 1.42270 22566 ft 360 kts 262°
2026-04-18 11:09 51.73313 1.38270 22035 ft 356 kts 262°
2026-04-18 11:09 51.73052 1.34319 21492 ft 353 kts 262°
2026-04-18 11:10 51.72792 1.30397 20971 ft 350 kts 262°
2026-04-18 11:10 51.72533 1.26508 20443 ft 347 kts 262°
2026-04-18 11:10 51.72275 1.22655 19940 ft 344 kts 262°
2026-04-18 11:10 51.72018 1.18846 19436 ft 342 kts 262°
2026-04-18 11:11 51.71761 1.15043 18945 ft 339 kts 262°
2026-04-18 11:11 51.71504 1.11269 18430 ft 338 kts 262°
2026-04-18 11:11 51.71249 1.07520 17869 ft 336 kts 262°
2026-04-18 11:11 51.70994 1.03788 17345 ft 333 kts 262°
2026-04-18 11:12 51.70739 1.00093 16852 ft 330 kts 262°
2026-04-18 11:12 51.70485 0.96429 16368 ft 328 kts 262°
2026-04-18 11:12 51.70233 0.92798 15929 ft 324 kts 262°
2026-04-18 11:12 51.69984 0.89212 15519 ft 320 kts 262°
2026-04-18 11:13 51.69738 0.85674 15137 ft 315 kts 262°
2026-04-18 11:13 51.69494 0.82183 14747 ft 312 kts 262°
2026-04-18 11:13 51.69252 0.78729 14366 ft 308 kts 262°
2026-04-18 11:13 51.69011 0.75311 13988 ft 305 kts 262°
2026-04-18 11:14 51.68772 0.71931 13568 ft 302 kts 262°
2026-04-18 11:14 51.68533 0.68579 13173 ft 299 kts 262°
2026-04-18 11:14 51.68297 0.65277 12797 ft 296 kts 262°
2026-04-18 11:14 51.68062 0.62001 12437 ft 293 kts 262°
2026-04-18 11:15 51.67829 0.58758 12075 ft 290 kts 262°
2026-04-18 11:15 51.67597 0.55539 11719 ft 288 kts 262°
2026-04-18 11:15 51.67365 0.52348 11378 ft 286 kts 262°
2026-04-18 11:15 51.67134 0.49172 11020 ft 284 kts 262°
2026-04-18 11:16 51.66903 0.46017 10674 ft 283 kts 262°
2026-04-18 11:16 51.66672 0.42888 10331 ft 281 kts 262°
2026-04-18 11:16 51.66446 0.39823 10156 ft 274 kts 262°
2026-04-18 11:16 51.66228 0.36854 10148 ft 261 kts 262°
2026-04-18 11:17 51.66018 0.34017 10070 ft 251 kts 261°
2026-04-18 11:17 51.65807 0.31246 9819 ft 248 kts 259°
2026-04-18 11:17 51.65164 0.28698 9436 ft 249 kts 238°
2026-04-18 11:17 51.64189 0.26371 8883 ft 257 kts 237°
2026-04-18 11:18 51.63184 0.23973 8490 ft 260 kts 237°
2026-04-18 11:18 51.62176 0.21545 8136 ft 261 kts 238°
2026-04-18 11:18 51.61179 0.19130 7804 ft 257 kts 238°
2026-04-18 11:18 51.60211 0.16769 7569 ft 247 kts 238°
2026-04-18 11:19 51.59295 0.14528 7455 ft 232 kts 238°
2026-04-18 11:19 51.58435 0.12419 7318 ft 221 kts 239°
2026-04-18 11:19 51.57596 0.10357 6992 ft 221 kts 239°
2026-04-18 11:19 51.56749 0.08272 6680 ft 224 kts 239°
2026-04-18 11:20 51.55893 0.06165 6358 ft 226 kts 239°
2026-04-18 11:20 51.55030 0.04041 6014 ft 229 kts 239°
2026-04-18 11:20 51.54157 0.01893 5578 ft 229 kts 239°
2026-04-18 11:20 51.53285 -0.00249 5127 ft 229 kts 239°
2026-04-18 11:21 51.52414 -0.02389 4708 ft 230 kts 239°
2026-04-18 11:21 51.51538 -0.04539 4334 ft 230 kts 239°
2026-04-18 11:21 51.50663 -0.06686 3924 ft 230 kts 239°
2026-04-18 11:21 51.49794 -0.08814 3524 ft 233 kts 240°
2026-04-18 11:22 51.48899 -0.11005 3133 ft 234 kts 240°
2026-04-18 11:22 51.48037 -0.13109 3009 ft 216 kts 239°
2026-04-18 11:22 51.47242 -0.15044 2981 ft 200 kts 239°
2026-04-18 11:22 51.46597 -0.16893 2962 ft 180 kts 259°
2026-04-18 11:23 51.46572 -0.18795 3002 ft 169 kts 272°
2026-04-18 11:23 51.46571 -0.20077 2994 ft 170 kts 271°
2026-04-18 11:23 51.46536 -0.22681 2778 ft 178 kts 269°
2026-04-18 11:23 51.46488 -0.24634 2534 ft 175 kts 268°
2026-04-18 11:24 51.46446 -0.25949 2349 ft 174 kts 269°
2026-04-18 11:24 51.46411 -0.27866 2057 ft 172 kts 272°
2026-04-18 11:24 51.46469 -0.29789 1697 ft 173 kts 276°
2026-04-18 11:24 51.46515 -0.31649 1454 ft 161 kts 272°
2026-04-18 11:25 51.46505 -0.33387 1302 ft 154 kts 270°
2026-04-18 11:25 51.46455 -0.35041 1125 ft 140 kts 272°
2026-04-18 11:25 51.46473 -0.36556 884 ft 135 kts 277°
2026-04-18 11:25 51.46501 -0.37993 788 ft 128 kts 272°
2026-04-18 11:26 51.46471 -0.39436 644 ft 132 kts 273°
2026-04-18 11:26 51.46482 -0.40890 462 ft 130 kts 276°
2026-04-18 11:26 51.46494 -0.42328 292 ft 127 kts 274°
2026-04-18 11:26 51.46491 -0.43748 114 ft 126 kts 276°
2026-04-18 11:27 51.46486 -0.45120 96 ft 119 kts 273°
2026-04-18 11:27 51.46488 -0.46341 87 ft 87 kts 269°
2026-04-18 11:27 51.46484 -0.47032 90 ft 45 kts 270°
2026-04-18 11:27 51.46481 -0.47445 85 ft 17 kts 267°
2026-04-18 11:28 51.46426 -0.47492 89 ft 12 kts 187°
2026-04-18 11:28 51.46359 -0.47446 91 ft 12 kts 88°
2026-04-18 11:28 51.46356 -0.47326 87 ft 12 kts 131°
2026-04-18 11:28 51.46324 -0.47182 87 ft 17 kts 97°
2026-04-18 11:29 51.46322 -0.46968 85 ft 22 kts 90°
2026-04-18 11:29 51.46321 -0.46726 85 ft 18 kts 90°
2026-04-18 11:29 51.46321 -0.46531 85 ft 17 kts 90°
2026-04-18 11:29 51.46322 -0.46342 85 ft 18 kts 89°
2026-04-18 11:30 51.46323 -0.46119 85 ft 22 kts 90°
2026-04-18 11:30 51.46324 -0.45874 85 ft 22 kts 89°
2026-04-18 11:30 51.46317 -0.45616 87 ft 20 kts 102°
2026-04-18 11:30 51.46199 -0.45461 86 ft 24 kts 146°
2026-04-18 11:31 51.46042 -0.45310 87 ft 28 kts 172°
2026-04-18 11:31 51.45834 -0.45331 85 ft 31 kts 179°
2026-04-18 11:31 51.45675 -0.45151 87 ft 33 kts 99°
2026-04-18 11:31 51.45743 -0.44839 87 ft 13 kts 34°
2026-04-18 11:32 51.45823 -0.44869 86 ft 4 kts 332°
2026-04-18 11:32 51.45824 -0.44869 85 ft 0 kts 332°